FW0743 Weather Reports


Display with metric or nautical units.
time (UTC)temp
F
wind
direction
speed
MPH
gust
MPH
rain 1hr
in
rain 24hr
in
rain mn
in
humidity
%
barometer
mb
20260905231519 66 348 2.0 4.0 0.00 0.00 0.00 84 1014.7
20260905230017 67 303 3.0 9.0 0.00 0.00 0.00 82 1014.7
20260905224540 68 5 2.0 7.0 0.00 0.00 0.00 80 1014.6
20260905223008 67 340 4.0 10.0 0.00 0.00 0.00 80 1014.6
20260905221513 69 323 2.0 8.0 0.00 0.00 0.00 78 1014.7
20260905220019 68 321 4.0 11.0 0.00 0.00 0.00 78 1014.6
20260905214520 69 329 4.0 9.0 0.00 0.00 0.00 77 1014.3
20260905213019 69 323 3.0 12.0 0.00 0.00 0.00 76 1014.1
20260905211533 69 11 7.0 12.0 0.00 0.00 0.00 76 1014.0
20260905210026 70 302 4.0 12.0 0.00 0.00 0.00 76 1014.0
20260905204520 70 350 5.0 14.0 0.00 0.00 0.00 75 1014.0
20260905203026 70 350 5.0 12.0 0.00 0.00 0.00 74 1014.1
20260905201525 71 343 5.0 12.0 0.00 0.00 0.00 73 1014.1
20260905200022 70 312 7.0 14.0 0.00 0.00 0.00 73 1014.1
20260905194520 71 345 5.0 10.0 0.00 0.00 0.00 72 1014.0
20260905193027 71 342 4.0 12.0 0.00 0.00 0.00 72 1013.9
20260905191526 71 5 4.0 12.0 0.00 0.00 0.00 71 1014.0
20260905190027 70 319 6.0 12.0 0.00 0.00 0.00 72 1014.0
20260905184527 70 310 8.0 13.0 0.00 0.00 0.00 74 1013.9
20260905183026 70 22 4.0 13.0 0.00 0.00 0.00 73 1014.0
20260905181526 70 9 7.0 15.0 0.00 0.00 0.00 74 1014.0
20260905180032 69 319 6.0 13.0 0.00 0.00 0.00 75 1013.8
20260905174513 69 307 6.0 11.0 0.00 0.00 0.00 77 1013.8
20260905173021 69 334 7.0 11.0 0.00 0.00 0.00 76 1014.0
20260905171529 70 39 7.0 13.0 0.00 0.00 0.00 74 1014.0
20260905170009 70 347 6.0 11.0 0.00 0.00 0.00 73 1014.0
20260905164516 71 281 7.0 15.0 0.00 0.00 0.00 71 1014.0
20260905163016 70 344 6.0 10.0 0.00 0.00 0.00 71 1014.0
20260905161505 70 63 5.0 11.0 0.00 0.00 0.00 72 1014.0
20260905160003 69 76 3.0 13.0 0.00 0.00 0.00 75 1014.1
20260905154511 69 302 5.0 10.0 0.00 0.00 0.00 73 1014.2
20260905153018 69 331 4.0 10.0 0.00 0.00 0.00 75 1014.3
20260905151522 69 30 1.0 11.0 0.00 0.00 0.00 75 1014.3
20260905150004 68 345 4.0 10.0 0.00 0.00 0.00 76 1014.3
20260905144516 67 350 4.0 10.0 0.00 0.00 0.00 78 1014.3
20260905143009 67 324 3.0 9.0 0.00 0.00 0.00 78 1014.3
20260905141517 67 44 3.0 8.0 0.00 0.00 0.00 82 1014.1
20260905140024 65 351 3.0 10.0 0.00 0.00 0.00 82 1014.1
20260905134505 65 316 4.0 10.0 0.00 0.00 0.00 83 1014.2
20260905133009 65 117 3.0 8.0 0.00 0.00 0.00 85 1014.1
20260905131523 64 338 3.0 7.0 0.00 0.00 0.00 87 1014.2
20260905130020 62 31 2.0 8.0 0.00 0.00 0.00 90 1014.3
20260905124526 61 24 0.0 7.0 0.00 0.00 0.00 94 1014.4
20260905123007 60 44 1.0 6.0 0.00 0.00 0.00 95 1014.3
20260905121510 59 39 1.0 4.0 0.00 0.00 0.00 98 1014.2
20260905120017 57 352 0.0 1.0 0.00 0.00 0.00 98 1014.1
20260905114523 55 352 0.0 0.0 0.00 0.00 0.00 98 1014.0
20260905113006 54 352 0.0 0.0 0.00 0.00 0.00 98 1014.0
20260905111509 53 352 0.0 0.0 0.00 0.00 0.00 97 1013.7
20260905110014 53 352 0.0 0.0 0.00 0.00 0.00 97 1013.5
20260905104520 53 352 0.0 0.0 0.00 0.00 0.00 97 1013.3
20260905103030 53 352 0.0 1.0 0.00 0.00 0.00 97 1013.1
20260905101508 53 352 0.0 0.0 0.00 0.00 0.00 97 1013.2
20260905100019 54 352 0.0 0.0 0.00 0.00 0.00 97 1013.2
20260905094520 54 352 0.0 0.0 0.00 0.00 0.00 97 1013.2
20260905093024 54 352 0.0 0.0 0.00 0.00 0.00 97 1013.3
20260905091527 54 352 0.0 1.0 0.00 0.00 0.00 97 1013.2
20260905090010 55 352 0.0 0.0 0.00 0.00 0.00 96 1013.1
20260905084513 55 352 0.0 0.0 0.00 0.00 0.00 96 1013.2
20260905083018 55 352 0.0 0.0 0.00 0.00 0.00 96 1013.2
20260905081524 55 352 0.0 1.0 0.00 0.00 0.00 96 1013.3
20260905080030 55 352 0.0 0.0 0.00 0.00 0.00 95 1013.4
20260905074521 56 352 0.0 1.0 0.00 0.00 0.00 95 1013.3
20260905073016 56 352 0.0 1.0 0.00 0.00 0.00 95 1013.4
20260905071523 57 352 0.0 1.0 0.00 0.00 0.00 94 1013.4
20260905070026 57 352 0.0 1.0 0.00 0.00 0.00 94 1013.6
20260905064531 58 352 0.0 2.0 0.00 0.00 0.00 93 1013.5
20260905063014 58 352 0.0 3.0 0.00 0.00 0.00 93 1013.6
20260905061520 58 338 0.0 2.0 0.00 0.00 0.00 93 1013.7
20260905060040 59 324 0.0 1.0 0.00 0.00 0.00 92 1013.6
20260905054557 60 324 0.0 0.0 0.00 0.00 0.00 91 1013.7
20260905053033 60 324 0.0 2.0 0.00 0.00 0.00 90 1013.8
20260905051518 61 355 0.0 2.0 0.00 0.00 0.00 88 1013.9
20260905050003 62 345 0.0 2.0 0.00 0.00 0.00 88 1013.9
20260905044527 62 345 0.0 2.0 0.00 0.00 0.00 88 1014.0
20260905043007 62 345 0.0 2.0 0.00 0.00 0.00 90 1013.9
20260905041519 62 345 0.0 2.0 0.00 0.00 0.00 93 1013.9
20260905040021 61 345 0.0 2.0 0.00 0.00 0.00 95 1013.9
20260905034504 61 345 0.0 1.0 0.00 0.00 0.00 95 1013.8
20260905033008 61 345 0.0 1.0 0.00 0.00 0.00 95 1013.8
20260905031510 61 345 0.0 1.0 0.00 0.00 0.00 94 1013.6
20260905030029 62 345 0.0 1.0 0.00 0.00 0.00 94 1013.6
20260905024525 62 345 0.0 0.0 0.00 0.00 0.00 93 1013.6
20260905023003 62 345 0.0 1.0 0.00 0.00 0.00 93 1013.7
20260905021507 62 345 0.0 2.0 0.00 0.00 0.00 94 1013.8
20260905020014 62 345 0.0 1.0 0.00 0.00 0.00 93 1013.9
20260905014525 62 345 0.0 1.0 0.00 0.00 0.00 91 1013.7
20260905013008 62 345 0.0 1.0 0.00 0.00 0.00 91 1013.7
20260905011508 63 345 0.0 0.0 0.00 0.00 0.00 89 1013.8
20260905010017 64 345 0.0 0.0 0.00 0.00 0.00 90 1013.8
20260905004517 64 345 0.0 0.0 0.00 0.00 0.00 88 1013.8
20260905003025 64 345 0.0 0.0 0.00 0.00 0.00 86 1013.9
20260905001505 65 345 0.0 0.0 0.00 0.00 0.00 84 1013.8
20260905000008 66 345 0.0 1.0 0.00 0.00 0.00 82 1013.7
20260904234514 67 345 0.0 0.0 0.00 0.00 0.00 80 1013.6
20260904233022 67 342 0.0 3.0 0.00 0.00 0.00 78 1013.4